Location: Le Rocchette
(44.3500°N, 7.8333°E)
Time: 20:49:32
(UTC+00:00)

Cosmos 1400 Rocket - Pass Details

Date: 17 November 2019
Orbit: 522 x 568 km, 81.2° (Epoch: 11 December)

Event Time Altitude Azimuth Distance (km) Brightness Sun altitude
Rises 05:46:13 0° 346° (NNW) 2,762 6.1 -7.5°
Reaches altitude 10° 05:48:26 10° 344° (NNW) 1,855 5.2 -7.1°
Maximum altitude 05:52:28 64° 263° (W) 617 2.8 -6.4°
Drops below altitude 10° 05:56:26 10° 182° (S) 1,812 5.7 -5.8°
Sets 05:58:34 0° 179° (S) 2,692 6.7 -5.4°
